Regional Weather Roundup
Issued by NWS Newport/Morehead, NC

Current Version | Previous Version | Graphics & Text | Print | Product List | Glossary Off
Versions: 1 2 3 4 5 6 7 8 9 10 11 12 13 14 15 16 17 18 19 20 21 22 23 24 25 26 27 28 29 30 31 32 33 34 35 36 37 38 39 40 41 42 43 44 45 46 47 48 49 50

000
ASUS42 KMHX 040613
RWRMHX
WEATHER ROUNDUP FOR EASTERN NORTH CAROLINA
NATIONAL WEATHER SERVICE NEWPORT/MOREHEAD CITY NC
100 AM EST SUN DEC 04 2016

NOTE: "FAIR" INDICATES FEW OR NO CLOUDS BELOW 12,000 FEET
WITH NO SIGNIFICANT WEATHER AND/OR OBSTRUCTIONS TO VISIBILITY

NCZ015>017-031-032-045>047-102-103-040700-
NORTH COAST

CITY           SKY/WX    TMP DP  RH WIND       PRES   REMARKS
EDENTON        CLOUDY    42  36  79 CALM      30.29S
ELIZABETH CITY PTCLDY    39  34  82 W5        30.28S
KITTY HAWK     CLEAR     45  39  78 NW5       30.25S
MANTEO         PTCLDY    46  35  66 N7        30.26F

$$

NCZ045>047-081-094-103-104-040700-
CENTRAL COAST

CITY           SKY/WX    TMP DP  RH WIND       PRES   REMARKS
FRISCO         MOCLDY    49  34  56 VRB6      30.26F

$$

NCZ095-097-098-100-101-040700-
SOUTHERN COAST

CITY           SKY/WX    TMP DP  RH WIND       PRES   REMARKS
BEAUFORT       CLOUDY    47  38  71 N5        30.26F
CEDAR ISLAND   NOT AVBL
JACKSONVILLE   CLOUDY    46  40  79 N3        30.25F
PINEY ISLAND   MOCLDY   N/A N/A N/A N6        30.26F
WILMINGTON     CLOUDY    46  38  73 CALM      30.25F


$$

NCZ011>013-027>030-043-044-078>080-089-090>093-098-040700-
COASTAL PLAIN

CITY           SKY/WX    TMP DP  RH WIND       PRES   REMARKS
AHOSKIE        CLOUDY    38  33  82 N3        30.29S
CLINTON        PTCLDY    45  38  77 CALM      30.27F
ELIZABETHTOWN  CLOUDY    46  39  79 CALM      30.24F
GOLDSBORO      CLOUDY    45  35  69 NE3       30.24F
GREENVILLE     CLOUDY    41  37  87 CALM      30.28F
HAVELOCK       CLOUDY    47  38  71 CALM      30.27F
KENANSVILLE    MOCLDY    43  39  87 CALM      30.26F
KINSTON          N/A     42  38  86 CALM      30.27F
NEW BERN       CLOUDY    44  39  82 CALM      30.28F
RICHLANDS      CLOUDY    43  41  93 CALM      30.26F
ROCKY MOUNT    CLOUDY    41  38  89 CALM      30.27F
WASHINGTON     CLOUDY    41  35  81 CALM      30.28F
WHITEVILLE     CLOUDY    44  42  90 CALM      30.24F

$$

AMZ130-135-150-152-154-156-158-170-250-252-270-ANZ085-086-088-633-658-670-040700-
MARINE OBSERVATIONS

STATION/POSITION TIME  TEMP    WIND        PRES    WAVE   SWELL
                       AIR SEA DIR/SP/G            HT/PER HT/PER
                 (UTC) (F)     (DEG/KT/KT) (MB)    (FT/S) (FT/S)
CHESAPEAKE LIGHT NOT AVBL
64 E VA BEACH    0550   50 60  350/ 16/ 19 1023.5    6/ 7
DUCK             0548   47 56  320/ 10/ 12 1024.1
2 E DUCK         NOT AVBL
OREGON INLET     0536   47 54  310/  6/  9 1024.3
13E OREGON INLT  0600      60                N/A     5/ 6   5/ 6
HATTERAS CG      0548   50 57  340/ 12/ 14 1024.2
DIAMOND BUOY     0550   53 75  360/ 12/ 17 1024.5    5/ 8   5/ 8
CAPE LOOKOUT     0600   49      10/  6/  8 1024.2
BEAUFORT LAB     0548   48 56   10/  7/  8 1023.5
30 SE NEW RVR IN 0508   54 71   30/  8/ 14 1025.1
30 SE NEW RVR IN NOT AVBL
27 SE WRIGHTSVLE 0508   54 69   20/  8/ 14 1024.3
5 SE WRIGHTSVLE  0508   50 63   30/ 10/ 16 1024.2
225 S CAPE HAT   0550   64 73  360/  8/ 12 1021.9    5/ 8   5/ 8
41 SE CHARLESTON 0550   59 74   50/ 12/ 16 1022.1    3/ 8   2/ 8

$$



USA.gov is the U.S. government's official web portal to all federal, state and local government web resources and services.